Location: Brunembert
(50.7122°N, 1.8935°E)
Time: 03:51:58
(UTC+00:00)

SPOT 5 - Pass Details

Date: 22 April 2021
Orbit: 623 x 814 km, 98.2° (Epoch: 06 May)

Event Time Altitude Azimuth Distance (km) Brightness Sun altitude
Exits shadow 21:14:08 36° 150° (SSE) 1,094 3.3 -18.2°
Maximum altitude 21:16:02 75° 73° (ENE) 727 2.8 -18.4°
Drops below altitude 10° 21:20:55 10° 348° (NNW) 2,233 6.3 -18.8°
Sets 21:23:16 0° 347° (NNW) 3,191 7.4 -19.1°
